WC1Z Weather Reports


Display with metric or nautical units.
time (UTC)temp
F
wind
direction
speed
MPH
gust
MPH
rain 1hr
in
rain 24hr
in
rain mn
in
humidity
%
barometer
mb
20260507151700 59 40 6.0 8.0 0.00 0.00 0.00 80 1018.1
20260507151201 58 37 6.0 9.0 0.00 0.00 0.00 79 1018.3
20260507150702 58 37 6.0 8.0 0.00 0.00 0.00 78 1017.8
20260507150203 58 24 6.0 9.0 0.00 0.00 0.00 79 1018.3
20260507145700 58 44 6.0 9.0 0.00 0.00 0.00 79 1018.2
20260507145201 57 12 4.0 5.0 0.00 0.00 0.00 80 1018.4
20260507144700 58 24 5.0 6.0 0.00 0.00 0.00 78 1018.2
20260507144201 58 20 4.0 5.0 0.00 0.00 0.00 79 1018.1
20260507143700 57 357 2.0 4.0 0.00 0.00 0.00 82 1018.2
20260507143200 57 54 6.0 7.0 0.00 0.00 0.00 80 1018.2
20260507142701 57 26 4.0 7.0 0.00 0.00 0.00 79 1018.3
20260507142200 57 26 6.0 10.0 0.00 0.00 0.00 79 1018.2
20260507141700 57 0 1.0 2.0 0.00 0.00 0.00 82 1018.2
20260507141201 56 77 2.0 2.0 0.00 0.00 0.00 82 1018.2
20260507140700 56 41 6.0 8.0 0.00 0.00 0.00 81 1018.4
20260507140201 56 327 2.0 4.0 0.00 0.00 0.00 83 1018.6
20260507135702 56 328 4.0 8.0 0.00 0.00 0.00 82 1018.5
20260507135200 56 37 1.0 4.0 0.00 0.00 0.00 83 1018.1
20260507134700 56 8 3.0 4.0 0.00 0.00 0.00 83 1018.0
20260507134201 56 353 5.0 7.0 0.00 0.00 0.00 83 1017.9
20260507133703 56 356 4.0 6.0 0.00 0.00 0.00 83 1017.8
20260507133201 56 30 6.0 8.0 0.00 0.00 0.00 83 1017.8
20260507132700 56 10 1.0 2.0 0.00 0.00 0.00 85 1017.7
20260507132202 56 65 2.0 3.0 0.00 0.00 0.00 84 1017.5
20260507131701 55 25 2.0 4.0 0.00 0.00 0.00 84 1017.9
20260507131201 55 331 4.0 6.0 0.00 0.00 0.00 84 1017.9
20260507130700 55 67 4.0 6.0 0.00 0.00 0.00 84 1017.6
20260507130200 55 88 2.0 3.0 0.00 0.00 0.00 84 1017.7
20260507125701 55 88 2.0 4.0 0.00 0.00 0.00 85 1017.7
20260507125200 55 87 4.0 4.0 0.00 0.00 0.00 86 1017.8
20260507124700 55 90 2.0 3.0 0.00 0.00 0.00 87 1017.6
20260507124200 55 90 1.0 1.0 0.00 0.00 0.00 89 1017.6
20260507123700 55 89 2.0 3.0 0.00 0.00 0.00 89 1017.5
20260507123201 55 90 4.0 5.0 0.00 0.00 0.00 89 1017.4
20260507122701 55 90 4.0 4.0 0.00 0.00 0.00 89 1017.5
20260507122200 55 91 2.0 3.0 0.00 0.00 0.00 90 1017.5
20260507121703 55 92 3.0 3.0 0.00 0.00 0.00 90 1017.1
20260507120721 55 90 3.0 3.0 0.00 0.00 0.00 90 1016.8
20260507120200 55 91 2.0 2.0 0.00 0.00 0.00 90 1016.7
20260507115700 55 91 3.0 4.0 0.00 0.00 0.00 90 1016.7
20260507115203 54 90 3.0 4.0 0.00 0.00 0.00 90 1016.6
20260507114702 54 91 4.0 4.0 0.00 0.00 0.00 91 1016.6
20260507114201 54 89 3.0 3.0 0.00 0.00 0.00 91 1016.5
20260507113701 54 90 3.0 4.0 0.00 0.00 0.00 91 1016.6
20260507113200 54 90 3.0 4.0 0.00 0.00 0.00 91 1016.6
20260507112700 54 90 3.0 4.0 0.00 0.00 0.00 91 1016.5
20260507112200 54 89 4.0 4.0 0.00 0.00 0.00 90 1016.3
20260507111700 54 90 4.0 4.0 0.00 0.00 0.00 90 1016.3
20260507111200 54 90 3.0 4.0 0.00 0.00 0.00 90 1016.3
20260507110700 54 91 3.0 4.0 0.00 0.00 0.00 90 1016.0
20260507110200 54 91 3.0 4.0 0.00 0.00 0.00 90 1015.7
20260507105700 54 90 3.0 4.0 0.00 0.00 0.00 90 1015.8
20260507105204 54 90 3.0 4.0 0.00 0.00 0.00 90 1015.8
20260507104701 54 91 2.0 3.0 0.00 0.00 0.00 90 1015.7
20260507104201 54 91 3.0 3.0 0.00 0.00 0.00 90 1015.5
20260507103700 54 91 4.0 4.0 0.00 0.00 0.00 91 1015.6
20260507103200 54 90 4.0 4.0 0.00 0.00 0.00 91 1015.5
20260507102701 54 90 3.0 4.0 0.00 0.00 0.00 91 1015.5
20260507102200 54 90 2.0 3.0 0.00 0.00 0.00 91 1015.3
20260507101701 54 91 3.0 4.0 0.00 0.00 0.00 92 1015.4
20260507101201 54 91 3.0 4.0 0.00 0.00 0.00 92 1015.2
20260507100700 54 90 3.0 4.0 0.00 0.00 0.00 92 1015.2
20260507100202 54 91 3.0 4.0 0.00 0.00 0.00 92 1015.2
20260507095700 54 91 3.0 3.0 0.00 0.00 0.00 92 1015.1
20260507095200 54 90 2.0 3.0 0.00 0.00 0.00 93 1015.0
20260507094702 53 89 4.0 5.0 0.00 0.00 0.00 93 1015.2
20260507094201 53 91 3.0 4.0 0.00 0.00 0.00 93 1015.5
20260507093700 53 90 4.0 4.0 0.00 0.00 0.00 93 1015.0
20260507093201 54 90 3.0 3.0 0.00 0.00 0.00 93 1015.2
20260507092700 54 92 3.0 4.0 0.00 0.00 0.00 93 1015.3
20260507092200 53 90 2.0 2.0 0.00 0.00 0.00 93 1015.6
20260507091700 53 85 2.0 3.0 0.00 0.00 0.00 93 1015.4
20260507091200 53 85 3.0 4.0 0.00 0.00 0.00 94 1015.5
20260507090709 53 90 2.0 4.0 0.00 0.00 0.00 94 1015.4
20260507090201 53 90 5.0 7.0 0.00 0.00 0.00 94 1015.5
20260507085700 54 115 2.0 3.0 0.00 0.00 0.00 94 1015.8
20260507085201 54 89 2.0 3.0 0.00 0.00 0.00 94 1015.6
20260507084701 54 90 3.0 4.0 0.00 0.00 0.00 94 1015.4
20260507084201 54 93 2.0 3.0 0.00 0.00 0.00 94 1015.3
20260507083702 54 91 1.0 2.0 0.00 0.00 0.00 94 1015.5
20260507083201 54 76 2.0 3.0 0.00 0.00 0.00 94 1015.6
20260507082700 54 85 2.0 3.0 0.00 0.00 0.00 94 1015.4
20260507082200 54 65 2.0 3.0 0.00 0.00 0.00 94 1015.4
20260507081700 54 51 3.0 4.0 0.00 0.00 0.00 94 1015.6
20260507081203 54 96 3.0 4.0 0.00 0.00 0.00 94 1016.0
20260507080701 54 111 3.0 4.0 0.00 0.00 0.00 94 1015.9
20260507080200 54 127 4.0 8.0 0.00 0.00 0.00 94 1015.5
20260507075700 54 76 3.0 4.0 0.00 0.00 0.00 94 1015.4
20260507075200 54 335 3.0 4.0 0.00 0.00 0.00 94 1015.6
20260507074700 54 332 2.0 3.0 0.00 0.00 0.00 94 1015.6
20260507074203 54 324 1.0 2.0 0.00 0.00 0.00 94 1015.5
20260507073703 54 321 2.0 4.0 0.00 0.00 0.00 94 1015.5
20260507073200 54 328 4.0 6.0 0.00 0.00 0.00 94 1015.7
20260507072700 55 339 3.0 4.0 0.00 0.00 0.00 94 1015.9
20260507072200 55 327 2.0 4.0 0.00 0.00 0.00 94 1015.8
20260507071701 55 353 5.0 7.0 0.00 0.00 0.00 94 1015.8
20260507071200 55 0 3.0 4.0 0.00 0.00 0.00 94 1015.8
20260507070701 55 34 4.0 5.0 0.00 0.00 0.00 94 1015.7
20260507070200 55 302 2.0 3.0 0.00 0.00 0.00 94 1015.8
20260507065700 55 309 2.0 4.0 0.00 0.00 0.00 94 1015.6
20260507065201 55 39 2.0 4.0 0.00 0.00 0.00 94 1015.5
20260507064702 55 12 4.0 6.0 0.00 0.00 0.00 94 1015.8
20260507064200 56 42 4.0 7.0 0.00 0.00 0.00 94 1015.7
20260507063700 56 51 4.0 6.0 0.00 0.00 0.00 94 1015.5
20260507063200 56 60 5.0 13.0 0.00 0.00 0.00 93 1015.7
20260507062700 56 45 5.0 9.0 0.00 0.00 0.00 93 1015.7
20260507062200 56 42 3.0 4.0 0.00 0.00 0.00 94 1015.8
20260507061700 56 83 3.0 4.0 0.00 0.00 0.00 94 1015.7
20260507061200 56 28 3.0 5.0 0.00 0.00 0.00 94 1016.0
20260507060701 56 38 2.0 2.0 0.00 0.00 0.00 93 1015.7
20260507060202 56 28 3.0 4.0 0.00 0.00 0.00 93 1015.8
20260507055701 56 78 3.0 4.0 0.00 0.00 0.00 93 1015.7
20260507055200 56 27 3.0 4.0 0.00 0.00 0.00 93 1015.8
20260507054700 56 21 4.0 7.0 0.00 0.00 0.00 93 1015.7
20260507054201 57 54 4.0 4.0 0.00 0.00 0.00 93 1015.5
20260507053702 57 236 2.0 3.0 0.00 0.00 0.00 93 1015.8
20260507053200 57 12 2.0 3.0 0.00 0.00 0.00 93 1015.8
20260507052705 57 315 2.0 3.0 0.00 0.00 0.00 93 1015.4
20260507052200 57 315 2.0 4.0 0.00 0.00 0.00 93 1015.6
20260507051701 57 315 2.0 3.0 0.00 0.00 0.00 93 1015.7
20260507051202 57 315 6.0 18.0 0.00 0.00 0.00 93 1015.6
20260507050700 57 314 6.0 15.0 0.00 0.00 0.00 93 1015.5
20260507045200 58 314 3.0 4.0 0.00 0.00 0.07 93 1015.5
20260507044700 58 320 20.0 34.0 0.00 0.00 0.07 93 1014.7
20260507044201 58 321 24.0 36.0 0.00 0.00 0.07 93 1014.9
20260507043701 58 321 24.0 34.0 0.00 0.00 0.07 93 1015.1
20260507043200 58 320 25.0 34.0 0.00 0.00 0.07 93 1015.4
20260507040700 58 314 6.0 12.0 0.00 0.00 0.07 93 1015.4
20260507040200 58 315 7.0 13.0 0.02 0.00 0.07 93 1015.1
20260507035702 58 314 3.0 8.0 0.02 0.00 0.09 93 1015.1
20260507034700 58 315 3.0 4.0 0.09 0.00 0.09 93 1014.7
20260507034201 58 315 2.0 2.0 0.09 0.00 0.09 93 1014.6
20260507033702 58 314 2.0 3.0 0.09 0.00 0.09 93 1014.4
20260507033200 59 314 3.0 4.0 0.11 0.00 0.09 92 1014.4
20260507032707 59 314 4.0 5.0 0.11 0.00 0.09 92 1014.5
20260507032200 59 314 3.0 5.0 0.11 0.00 0.12 92 1014.6
20260507031701 59 317 4.0 5.0 0.11 0.00 0.12 92 1014.4
20260507031201 59 323 4.0 5.0 0.13 0.00 0.12 91 1014.3
20260507030701 59 326 4.0 6.0 0.13 0.00 0.14 91 1014.4
20260507030202 60 334 6.0 9.0 0.11 0.00 0.14 90 1014.5
20260507025700 60 345 7.0 10.0 0.00 0.00 0.14 90 1014.4
20260507025200 60 37 4.0 7.0 0.00 0.00 0.11 89 1014.3
20260507024700 60 344 4.0 5.0 0.00 0.00 0.01 89 1014.7
20260507024200 60 339 4.0 8.0 0.00 0.00 0.01 89 1014.3
20260507023700 60 17 3.0 4.0 0.00 0.00 0.01 89 1013.9
20260507023200 60 17 2.0 3.0 0.00 0.00 0.01 89 1013.9
20260507022700 61 1 3.0 7.0 0.00 0.00 0.01 88 1013.8
20260507022201 61 18 2.0 4.0 0.00 0.00 0.01 88 1013.9
20260507021702 61 320 2.0 4.0 0.00 0.00 0.01 88 1013.8
20260507021201 61 143 1.0 2.0 0.00 0.00 0.01 88 1013.6
20260507020700 61 6 3.0 4.0 0.00 0.00 0.01 88 1013.4
20260507020200 61 96 2.0 3.0 0.00 0.00 0.01 88 1013.4
20260507015700 61 67 5.0 7.0 0.00 0.00 0.01 88 1013.3
20260507015201 61 8 4.0 6.0 0.00 0.00 0.01 88 1013.2
20260507014700 61 352 4.0 6.0 0.00 0.00 0.01 88 1013.3
20260507014202 62 50 5.0 8.0 0.00 0.00 0.01 88 1013.2
20260507013700 62 328 4.0 5.0 0.00 0.00 0.01 88 1012.9
20260507013200 62 47 3.0 4.0 0.00 0.00 0.01 88 1012.9
20260507012700 62 24 4.0 7.0 0.00 0.00 0.01 87 1012.7
20260507012201 62 2 4.0 7.0 0.00 0.00 0.01 87 1012.6
20260507011701 63 13 4.0 6.0 0.00 0.00 0.01 87 1012.6
20260507011204 63 27 4.0 7.0 0.00 0.00 0.01 87 1012.5
20260507010700 63 8 0.0 1.0 0.00 0.00 0.01 88 1012.4
20260507010201 63 349 5.0 8.0 0.00 0.00 0.01 87 1012.1
20260507005701 64 31 2.0 5.0 0.00 0.00 0.01 87 1012.0
20260507005200 64 3 4.0 6.0 0.00 0.00 0.01 87 1012.1
20260507004701 64 343 5.0 8.0 0.00 0.00 0.01 87 1012.2
20260507004200 64 301 3.0 6.0 0.00 0.00 0.01 87 1012.1
20260507003700 65 318 3.0 8.0 0.00 0.00 0.01 87 1012.0
20260507003201 65 349 3.0 7.0 0.00 0.00 0.01 86 1012.0
20260507002701 65 25 4.0 6.0 0.00 0.00 0.01 86 1012.0
20260507002200 66 350 0.0 2.0 0.00 0.00 0.01 86 1012.2
20260507001700 66 333 5.0 8.0 0.00 0.00 0.01 86 1012.1
20260507001200 66 51 4.0 6.0 0.00 0.00 0.01 86 1012.0
20260507000700 66 14 3.0 4.0 0.00 0.00 0.01 86 1011.8
20260507000204 66 359 2.0 4.0 0.00 0.00 0.01 86 1011.9
20260506235701 67 334 2.0 3.0 0.00 0.00 0.01 86 1011.9
20260506235200 67 3 2.0 4.0 0.00 0.00 0.01 86 1011.8
20260506234703 67 359 4.0 6.0 0.00 0.00 0.01 86 1011.8
20260506234200 67 17 6.0 11.0 0.00 0.00 0.01 86 1011.6
20260506233707 67 320 3.0 7.0 0.00 0.00 0.01 86 1011.4
20260506233200 68 327 5.0 8.0 0.00 0.00 0.01 86 1011.2
20260506232700 68 353 3.0 6.0 0.01 0.00 0.01 86 1011.2
20260506232200 68 18 2.0 3.0 0.01 0.00 0.01 86 1011.3
20260506231700 69 31 5.0 7.0 0.01 0.00 0.01 86 1011.0
20260506231201 69 346 4.0 8.0 0.01 0.00 0.01 86 1010.8
20260506230701 69 303 3.0 5.0 0.01 0.00 0.01 86 1010.8
20260506230201 69 32 6.0 8.0 0.01 0.00 0.01 86 1010.8
20260506225700 69 63 2.0 4.0 0.01 0.00 0.01 87 1010.8
20260506225200 69 23 2.0 4.0 0.01 0.00 0.01 87 1011.0
20260506224702 69 10 5.0 9.0 0.01 0.00 0.01 87 1011.1
20260506224200 69 37 4.0 7.0 0.01 0.00 0.01 87 1011.0
20260506223703 69 313 2.0 3.0 0.00 0.00 0.01 87 1011.0
20260506223200 69 86 3.0 5.0 0.00 0.00 0.00 87 1011.0
20260506222701 70 108 1.0 2.0 0.00 0.00 0.00 86 1010.8
20260506222200 70 318 3.0 7.0 0.00 0.00 0.00 86 1010.7
20260506221701 71 358 4.0 12.0 0.00 0.00 0.00 86 1010.5
20260506221201 72 351 5.0 8.0 0.00 0.00 0.00 86 1010.5
20260506220701 73 351 3.0 6.0 0.00 0.00 0.00 86 1010.4
20260506220200 74 353 5.0 10.0 0.00 0.00 0.00 86 1010.2
20260506215702 75 47 7.0 10.0 0.00 0.00 0.00 86 1010.0
20260506215202 76 342 4.0 5.0 0.00 0.00 0.00 85 1010.2
20260506214700 76 20 4.0 8.0 0.00 0.00 0.00 85 1010.0
20260506214200 77 39 7.0 9.0 0.00 0.00 0.00 84 1009.9
20260506213700 78 40 6.0 9.0 0.00 0.00 0.00 84 1010.0
20260506213200 79 31 2.0 4.0 0.00 0.00 0.00 83 1010.0
20260506212700 79 73 3.0 5.0 0.00 0.00 0.00 83 1010.1
20260506212200 79 22 3.0 4.0 0.00 0.00 0.00 81 1010.2
20260506211701 80 346 2.0 3.0 0.00 0.00 0.00 81 1010.2
20260506211200 80 43 0.0 2.0 0.00 0.00 0.00 81 1010.2
20260506210700 79 86 3.0 4.0 0.00 0.00 0.00 81 1010.2
20260506210200 79 67 3.0 6.0 0.00 0.00 0.00 81 1010.1
20260506205702 80 84 4.0 5.0 0.00 0.00 0.00 81 1010.2
20260506205200 80 29 5.0 9.0 0.00 0.00 0.00 81 1010.2
20260506204701 80 84 4.0 5.0 0.00 0.00 0.00 80 1010.2
20260506204200 80 109 2.0 4.0 0.00 0.00 0.00 79 1010.2
20260506203700 80 2 1.0 3.0 0.00 0.00 0.00 80 1010.2
20260506203200 80 92 3.0 4.0 0.00 0.00 0.00 80 1010.2
20260506202700 81 99 4.0 6.0 0.00 0.00 0.00 78 1010.2
20260506202200 81 125 2.0 3.0 0.00 0.00 0.00 79 1010.2
20260506201700 81 284 2.0 4.0 0.00 0.00 0.00 78 1010.1
20260506201201 80 295 3.0 6.0 0.00 0.00 0.00 80 1010.2
20260506200701 80 259 4.0 5.0 0.00 0.00 0.00 80 1010.1
20260506200200 80 252 1.0 2.0 0.00 0.00 0.00 81 1010.1
20260506195700 79 337 3.0 5.0 0.00 0.00 0.00 81 1010.1
20260506195200 79 290 4.0 5.0 0.00 0.00 0.00 81 1010.1
20260506194701 79 0 3.0 6.0 0.00 0.00 0.00 81 1010.2
20260506194201 78 300 2.0 4.0 0.00 0.00 0.00 82 1010.2
20260506193701 78 335 4.0 6.0 0.00 0.00 0.00 82 1010.2
20260506193200 77 0 3.0 5.0 0.00 0.00 0.00 83 1010.2
20260506192700 77 7 2.0 5.0 0.00 0.00 0.00 83 1010.3
20260506192201 77 354 3.0 4.0 0.00 0.00 0.00 84 1010.3
20260506191700 77 44 2.0 4.0 0.00 0.00 0.00 84 1010.5
20260506191200 77 20 4.0 7.0 0.00 0.00 0.00 84 1010.5
20260506190700 78 341 4.0 7.0 0.00 0.00 0.00 83 1010.6
20260506190200 78 17 2.0 4.0 0.00 0.00 0.00 82 1010.7
20260506185702 79 12 3.0 6.0 0.00 0.00 0.00 81 1010.7
20260506185200 80 292 2.0 5.0 0.00 0.00 0.00 79 1011.0
20260506184700 80 215 2.0 4.0 0.00 0.00 0.00 80 1011.1
20260506184201 80 127 2.0 2.0 0.00 0.00 0.00 81 1011.3
20260506183701 80 177 4.0 5.0 0.00 0.00 0.00 80 1011.5
20260506183201 80 240 1.0 2.0 0.00 0.00 0.00 80 1011.6
20260506182701 80 236 3.0 5.0 0.00 0.00 0.00 81 1011.7
20260506182200 80 173 2.0 6.0 0.00 0.00 0.00 82 1011.8
20260506181701 80 199 3.0 5.0 0.00 0.00 0.00 82 1011.9
20260506181201 79 234 2.0 3.0 0.00 0.00 0.00 81 1012.1
20260506180702 79 207 3.0 4.0 0.00 0.00 0.00 82 1012.1
20260506180201 79 223 4.0 6.0 0.00 0.00 0.00 82 1012.1
20260506175700 79 222 4.0 4.0 0.00 0.00 0.00 82 1012.2
20260506175200 79 200 3.0 4.0 0.00 0.00 0.00 83 1012.4
20260506174701 79 230 2.0 4.0 0.00 0.00 0.00 84 1012.4
20260506174201 79 190 2.0 3.0 0.00 0.00 0.00 84 1012.5
20260506173700 79 168 1.0 2.0 0.00 0.00 0.00 84 1012.5
20260506173202 79 216 0.0 1.0 0.00 0.00 0.00 85 1012.8
20260506172701 78 228 0.0 1.0 0.00 0.00 0.00 84 1012.9
20260506172200 78 174 1.0 2.0 0.00 0.00 0.00 84 1013.0
20260506171700 78 218 2.0 3.0 0.00 0.00 0.00 84 1013.0
20260506171201 78 227 4.0 4.0 0.00 0.00 0.00 84 1013.0
20260506170701 78 195 1.0 2.0 0.00 0.00 0.00 85 1013.0
20260506170200 78 178 2.0 4.0 0.00 0.00 0.00 84 1012.8
20260506165700 78 237 2.0 3.0 0.00 0.00 0.00 84 1012.9
20260506165202 78 208 0.0 1.0 0.00 0.00 0.00 84 1012.8
20260506164701 78 243 2.0 3.0 0.00 0.00 0.00 84 1012.9
20260506164201 78 177 5.0 7.0 0.00 0.00 0.00 84 1012.6
20260506163701 78 207 2.0 3.0 0.00 0.00 0.00 84 1012.6
20260506163203 78 168 2.0 4.0 0.00 0.00 0.00 85 1012.5
20260506162700 78 174 4.0 6.0 0.00 0.00 0.00 84 1012.4
20260506162201 78 169 3.0 4.0 0.00 0.00 0.00 85 1012.4
20260506161701 78 231 2.0 3.0 0.00 0.00 0.00 84 1012.4
20260506161200 78 174 3.0 4.0 0.00 0.00 0.00 84 1012.4
20260506160702 78 240 1.0 3.0 0.00 0.00 0.00 84 1012.4
20260506160204 78 165 2.0 3.0 0.00 0.00 0.00 84 1012.4
20260506155702 78 196 1.0 1.0 0.00 0.00 0.00 85 1012.4
20260506155200 78 178 4.0 4.0 0.00 0.00 0.00 85 1012.4
20260506154702 78 190 2.0 4.0 0.00 0.00 0.00 85 1012.2
20260506154201 78 211 1.0 2.0 0.00 0.00 0.00 85 1012.3
20260506153700 78 183 1.0 3.0 0.00 0.00 0.00 85 1012.3
20260506153201 78 224 3.0 5.0 0.00 0.00 0.00 84 1012.2
20260506152700 78 186 3.0 4.0 0.00 0.00 0.00 84 1012.1
20260506152200 78 210 1.0 4.0 0.00 0.00 0.00 85 1012.0